Home > Time Zones > World Clock > Weather > Latvia > Riga > Past weeks

Flag for Latvia Weather past 2 weeks in Riga, Latvia

Now
57 °F

Sunny.


Feels Like: 57 °F
Forecast: 46 / 67 °F
Wind: 5 mph from East

Location: Riga Airport


UV Index: 0 (Low)

Visibility: 10 mi


Pressure: 30.07 "Hg

Humidity: 51%

Dew point: 39 °F

Location of RigaLocation

Historic Weather in Riga

°F

Riga temperature yesterday

Maximum temperature yesterday: 70 °F (at 2:20 PM)
Minimum temperature yesterday: 39 °F (at 4:20 AM)
Average temperature yesterday: 56 °F

Past Weeks' High & Low Weather Summary

 TemperatureHumidityPressure
High70 °F (Apr 20, 2:20 PM)100% (Apr 6, 10:20 PM)30.33 "Hg (Apr 6, 10:20 PM)
Low28 °F (Apr 17, 12:50 AM)27% (Apr 18, 2:50 PM)29.47 "Hg (Apr 14, 6:20 AM)
Average46 °F71%29.96 "Hg
* Reported Apr 6 8:20 AM — Apr 21 8:20 AM, Riga, Weather by CustomWeather, © 2014

Note: Actual official high and low records may vary slightly from our data, if they occured in-between our weather recording intervals... More about our weather records

Advertising

Historic Weather Conditions — Data for Previous 24 hours

 ConditionsComfort  
Time TempWeatherWind HumidityBarometerVisibility
8:20 AM
Apr 21
57 °FPassing clouds.5 mph51%30.07 "HgN/A
7:50 AM55 °FPassing clouds.5 mph55%30.07 "HgN/A
7:20 AM55 °FPassing clouds.5 mph55%30.07 "HgN/A
6:50 AM55 °FPassing clouds.3 mph55%30.07 "HgN/A
6:20 AM55 °FClear.5 mph51%30.07 "Hg10 mi
5:50 AM57 °FClear.6 mph48%30.07 "Hg10 mi
5:20 AM57 °FClear.5 mph48%30.07 "Hg10 mi
4:50 AM57 °FClear.5 mph48%30.07 "Hg10 mi
4:20 AM57 °FClear.6 mph48%30.09 "Hg10 mi
3:50 AM57 °FClear.6 mph48%30.09 "Hg10 mi
3:20 AM57 °FClear.6 mph48%30.09 "Hg10 mi
2:50 AM57 °FClear.7 mph48%30.09 "Hg10 mi
2:20 AM57 °FClear.7 mph48%30.09 "Hg10 mi
1:50 AM59 °FClear.6 mph45%30.09 "Hg10 mi
1:20 AM59 °FClear.8 mph45%30.12 "Hg10 mi
12:50 AM59 °FClear.9 mph45%30.12 "Hg10 mi
12:20 AM59 °FPassing clouds.7 mph45%30.12 "HgN/A
11:50 PM
Apr 20
59 °FClear.6 mph48%30.09 "Hg10 mi
11:20 PM61 °FClear.7 mph45%30.09 "Hg10 mi
10:50 PM59 °FClear.6 mph48%30.09 "Hg10 mi
10:20 PM59 °FClear.5 mph51%30.09 "Hg10 mi
9:50 PM55 °FClear.5 mph59%30.09 "Hg10 mi
9:20 PM57 °FClear.5 mph55%30.09 "Hg6 mi
8:50 PM57 °FSunny.6 mph51%30.09 "Hg10 mi
8:20 PM59 °FSunny.6 mph48%30.09 "Hg10 mi
7:50 PM61 °FSunny.8 mph45%30.09 "Hg10 mi
7:20 PM63 °FSunny.9 mph39%30.09 "Hg10 mi
6:50 PM64 °FSunny.10 mph37%30.09 "Hg10 mi
6:20 PM64 °FSunny.13 mph40%30.09 "Hg10 mi
5:50 PM66 °FSunny.18 mph35%30.09 "Hg10 mi
5:20 PM68 °FSunny.14 mph35%30.12 "Hg10 mi
4:50 PM68 °FSunny.14 mph35%30.12 "Hg10 mi
4:20 PM68 °FSunny.16 mph35%30.12 "Hg10 mi
3:50 PM68 °FSunny.13 mph33%30.12 "Hg10 mi
3:20 PM68 °FPassing clouds.9 mph35%30.12 "HgN/A
2:50 PM68 °FPassing clouds.8 mph35%30.15 "HgN/A
2:20 PM70 °FPassing clouds.7 mph31%30.15 "HgN/A
1:50 PM68 °FPassing clouds.8 mph33%30.15 "HgN/A
1:20 PM68 °FSunny.10 mph35%30.15 "Hg10 mi
12:50 PM68 °FPassing clouds.9 mph33%30.18 "HgN/A
12:20 PM66 °FPassing clouds.9 mph35%30.18 "HgN/A
11:50 AM64 °FPassing clouds.7 mph40%30.18 "HgN/A
11:20 AM64 °FPassing clouds.7 mph40%30.18 "HgN/A
10:50 AM63 °FSunny.6 mph42%30.18 "Hg10 mi
10:20 AM61 °FPassing clouds.6 mph45%30.18 "HgN/A
9:50 AM57 °FPassing clouds.5 mph48%30.18 "HgN/A
9:20 AM55 °FPassing clouds.6 mph51%30.18 "HgN/A
Weather by CustomWeather, © 2014

See weather overview